CAPE
36 1 3 30 56 71 162 200 210 237 217 208 144 130 75 55 8 0 0 0 0 0 0 0 0 0 0 0 0 0 0 0
1 0 0 0 33 192 282 262 262 216 180 97 86 23 12 7 0 0 0 0 0 0 0 0 0 0 0 0 0 0 0 0
3 0 6 3 16 90 291 342 251 174 109 72 29 18 2 0 0 0 0 0 0 0 0 0 0 0 0 0 0 0 0 0
0 0 0 0 8 27 263 295 171 181 133 83 72 73 12 0 0 0 0 0 0 0 0 0 0 0 0 0 0 0 0 0
2 1 5 0 6 109 196 159 155 164 98 65 89 98 38 54 13 0 0 0 0 0 0 0 0 0 0 0 0 0 0 0
4 0 0 0 0 3 32 46 59 81 59 92 117 54 45 7 4 0 0 0 0 0 0 0 0 0 0 0 0 0 0 0
0 0 0 0 0 1 36 99 72 31 20 40 24 0 13 3 0 0 0 0 0 0 0 0 0 0 0 0 0 0 0 0
0 0 0 4 16 65 17 26 0 8 100 215 176 14 8 0 0 0 0 0 0 0 0 0 0 0 0 0 0 0 0 0
0 11 28 0 65 150 0 1 2 48 252 367 247 36 0 0 0 0 0 0 0 0 0 0 0 0 0 0 0 0 0 0
9 29 40 48 127 89 0 0 21 170 354 402 188 23 0 0 0 0 0 0 0 0 0 0 0 0 0 0 0 0 0 0
7 16 83 242 369 75 0 31 247 530 560 426 144 8 0 0 0 0 0 0 0 0 0 0 0 0 0 0 0 0 0 0
54 127 281 475 401 76 1 128 446 654 591 374 59 0 0 0 0 0 0 0 0 0 0 0 0 0 0 0 0 0 0 0
133 132 216 470 365 49 14 186 443 591 576 302 25 0 0 0 0 0 0 0 0 0 0 0 0 0 0 0 0 0 0 0
301 316 392 486 282 45 61 170 396 593 407 203 7 0 0 0 0 0 0 0 0 0 0 0 0 0 0 0 0 0 0 0
308 379 453 460 275 82 251 362 177 289 76 22 9 0 0 0 0 0 0 0 0 0 0 0 0 0 0 0 0 0 0 0
381 369 450 548 465 293 192 219 294 208 41 13 0 0 0 0 0 0 0 0 0 0 0 0 0 0 0 0 0 0 0 0
635 644 598 572 589 411 303 360 417 425 14 0 0 0 0 0 0 0 0 0 0 0 0 0 0 0 0 0 0 0 0 0
679 814 741 596 637 555 473 478 546 185 0 0 0 0 0 0 0 0 0 0 0 0 0 0 0 0 0 0 0 0 0 0
963 959 816 729 705 630 657 658 475 55 0 0 0 0 0 0 0 0 0 0 0 0 0 0 0 0 0 0 0 0 0 0
1167 1047 1040 890 773 634 448 279 59 0 0 0 0 0 0 0 0 0 0 0 0 0 0 0 0 0 0 0 0 0 0 0
CIN
-122 -2 -11 -6 -23 -62 -25 -11 -34 -33 -68 -63 -108 -144 -174 -179 -139 -0 -0 -0 -0 -0 -0 -0 -0 -0 -0 -0 -0 -0 -0 -0
-0 -0 -0 -0 -13 -11 -9 -33 -8 -46 -75 -137 -180 -258 -257 -212 -0 -0 -0 -0 -0 -0 -0 -0 -0 -0 -0 -0 -0 -0 -0 -0
-0 -0 -0 -21 -7 -3 -4 -5 -31 -54 -94 -184 -193 -205 -187 -0 -0 -0 -0 -0 -0 -0 -0 -0 -0 -0 -0 -0 -0 -0 -0 -0
-0 -0 -0 -0 -0 -1 -0 -6 -13 -59 -95 -79 -63 -96 -109 -0 -0 -0 -0 -0 -0 -0 -0 -0 -0 -0 -0 -0 -0 -0 -0 -0
-0 -0 -5 -0 -26 -24 -2 -29 -56 -48 -51 -83 -60 -121 -117 -65 -90 -0 -0 -0 -0 -0 -0 -0 -0 -0 -0 -0 -0 -0 -0 -0
-0 -0 -0 -0 -0 -58 -53 -63 -70 -55 -81 -56 -57 -103 -88 -93 -60 -0 -0 -0 -0 -0 -0 -0 -0 -0 -0 -0 -0 -0 -0 -0
-0 -0 -0 -0 -0 -0 -15 -28 -48 -81 -54 -28 -64 -0 -89 -60 -0 -0 -0 -0 -0 -0 -0 -0 -0 -0 -0 -0 -0 -0 -0 -0
-0 -0 -0 -4 -3 -12 -33 -39 -3 -54 -9 -18 -45 -78 -95 -0 -0 -0 -0 -0 -0 -0 -0 -0 -0 -0 -0 -0 -0 -0 -0 -0
-0 -1 -0 -1 -0 -0 -1 -1 -51 -16 -3 -18 -28 -84 -0 -0 -0 -0 -0 -0 -0 -0 -0 -0 -0 -0 -0 -0 -0 -0 -0 -0
-0 -1 -1 -1 -1 -2 -0 -0 -23 -3 -10 -16 -45 -76 -0 -0 -0 -0 -0 -0 -0 -0 -0 -0 -0 -0 -0 -0 -0 -0 -0 -0
-2 -0 -0 -0 -0 -11 -0 -13 -3 -0 -1 -17 -59 -41 -0 -0 -0 -0 -0 -0 -0 -0 -0 -0 -0 -0 -0 -0 -0 -0 -0 -0
-26 -5 -0 -0 -0 -20 -49 -15 -1 -0 -1 -8 -60 -0 -0 -0 -0 -0 -0 -0 -0 -0 -0 -0 -0 -0 -0 -0 -0 -0 -0 -0
-42 -40 -18 -0 -1 -111 -158 -9 -1 -0 -2 -16 -62 -0 -0 -0 -0 -0 -0 -0 -0 -0 -0 -0 -0 -0 -0 -0 -0 -0 -0 -0
-53 -57 -32 -8 -32 -120 -97 -38 -1 -1 -17 -58 -114 -0 -0 -0 -0 -0 -0 -0 -0 -0 -0 -0 -0 -0 -0 -0 -0 -0 -0 -0
-94 -60 -44 -46 -72 -124 -64 -29 -94 -49 -127 -159 -145 -0 -0 -0 -0 -0 -0 -0 -0 -0 -0 -0 -0 -0 -0 -0 -0 -0 -0 -0
-106 -83 -56 -41 -37 -53 -119 -76 -53 -87 -140 -131 -0 -0 -0 -0 -0 -0 -0 -0 -0 -0 -0 -0 -0 -0 -0 -0 -0 -0 -0 -0
-111 -79 -68 -73 -68 -89 -97 -66 -25 -18 -176 -0 -0 -0 -0 -0 -0 -0 -0 -0 -0 -0 -0 -0 -0 -0 -0 -0 -0 -0 -0 -0
-113 -90 -86 -96 -92 -103 -95 -67 -28 -85 -22 -0 -0 -0 -0 -0 -0 -0 -0 -0 -0 -0 -0 -0 -0 -0 -0 -0 -0 -0 -0 -0
-115 -113 -103 -113 -109 -109 -92 -63 -55 -157 -0 -0 -0 -0 -0 -0 -0 -0 -0 -0 -0 -0 -0 -0 -0 -0 -0 -0 -0 -0 -0 -0
-116 -120 -117 -115 -133 -148 -144 -145 -198 -0 -0 -0 -0 -0 -0 -0 -0 -0 -0 -0 -0 -0 -0 -0 -0 -0 -0 -0 -0 -0 -0 -0
Wind_Speed
6 7 7 7 8 10 10 9 13 13 14 12 12 12 14 12 13 14 13 14 16 17 17 19 20 22 22 23 24 25 25 25
7 7 9 7 8 9 9 9 14 11 11 11 10 12 11 10 11 8 11 13 15 16 18 19 20 21 22 23 24 24 25 24
4 7 7 10 7 6 7 11 12 10 10 11 9 7 7 5 5 9 11 13 15 17 18 18 19 21 22 23 23 24 24 24
9 12 10 13 8 7 5 9 10 9 6 5 2 4 3 3 6 8 11 13 15 16 17 18 18 20 22 23 24 24 25 24
5 5 6 6 9 6 6 8 8 6 6 3 0 4 5 5 7 9 10 12 13 14 15 18 19 21 22 23 23 24 24 24
4 5 5 8 6 10 7 6 7 5 5 4 4 13 12 8 7 8 9 10 11 13 16 18 19 21 22 23 25 25 25 24
8 8 11 13 14 15 8 9 4 4 10 28 26 18 11 8 7 7 9 10 11 13 15 17 18 20 22 23 25 25 25 25
13 18 25 33 35 29 27 29 31 31 31 29 21 11 4 5 6 9 8 10 12 14 15 16 19 20 22 23 24 24 24 24
40 39 40 41 36 32 31 32 32 32 28 26 16 5 4 5 6 7 8 10 12 13 15 18 19 20 21 22 22 22 22 22
37 36 35 34 31 29 29 28 29 12 18 13 5 3 3 6 6 7 8 9 11 13 15 17 19 20 21 21 22 21 21 21
32 32 31 30 29 28 27 18 16 6 5 5 4 4 6 6 6 6 7 9 10 12 16 17 19 19 20 20 20 19 20 20
29 29 28 26 23 20 13 4 4 10 7 2 6 7 5 4 6 5 6 8 10 12 15 16 18 19 20 21 20 20 20 20
26 26 25 23 21 16 8 11 5 8 8 3 4 4 2 2 6 5 6 8 10 13 14 15 17 18 21 21 23 22 19 19
23 22 21 20 17 14 8 4 4 11 11 10 1 1 1 3 4 6 6 8 10 11 12 14 16 17 22 25 26 23 20 19
22 20 17 16 16 12 5 4 13 11 14 9 4 3 4 5 5 5 5 7 9 9 10 11 16 18 20 24 26 27 26 20
21 21 18 14 15 11 10 6 8 14 14 9 6 5 5 3 4 5 5 7 10 10 10 11 15 21 20 19 22 24 26 27
14 17 16 14 12 13 9 9 8 11 10 8 7 7 5 4 5 6 7 9 11 11 11 12 18 21 22 23 22 23 22 25
11 12 13 14 14 14 13 11 7 7 8 9 10 9 7 7 6 7 8 9 10 11 11 17 18 20 23 21 23 24 25 25
12 12 13 11 11 12 13 11 8 10 10 11 11 12 10 9 8 9 8 8 10 11 14 20 19 22 23 22 22 23 23 24
14 13 13 11 11 12 10 9 9 9 11 12 13 13 12 10 10 11 10 12 11 13 18 19 20 22 22 22 23 21 21 22
Wind_Direction
134 133 137 126 127 132 133 151 126 123 114 105 99 88 78 69 62 58 47 45 48 47 39 37 35 35 35 29 24 19 21 23
139 148 151 152 129 132 144 158 123 129 120 107 102 86 77 67 56 30 45 42 40 43 40 40 37 34 32 31 29 30 19 21
152 136 182 136 142 185 147 120 121 138 126 111 104 82 72 49 356 28 39 41 44 47 41 35 34 31 27 23 24 20 21 17
116 113 151 124 149 177 141 127 128 140 146 122 86 67 305 345 355 17 36 41 46 42 38 37 39 25 24 22 18 17 15 13
139 142 156 157 136 152 132 123 125 141 160 193 184 260 268 317 21 25 36 47 40 31 29 19 18 20 18 17 18 15 11 10
145 127 128 130 141 117 123 133 132 191 197 218 249 242 255 298 341 22 43 16 10 17 20 24 25 23 19 14 9 6 5 7
122 123 116 129 131 132 154 210 182 204 221 201 205 232 265 304 333 15 346 25 21 25 29 28 28 20 15 10 7 6 5 2
110 113 120 127 130 147 187 190 188 185 186 194 225 263 337 14 341 319 354 15 28 28 30 28 16 15 11 9 9 9 8 7
142 147 144 146 160 172 184 182 176 177 199 210 250 317 2 331 340 4 28 28 30 28 21 12 12 13 12 10 11 10 8 8
150 155 155 157 162 156 159 154 157 119 238 258 297 17 17 337 5 33 38 40 25 15 11 8 9 8 8 9 8 8 5 5
150 155 161 162 164 163 156 133 132 269 286 303 89 88 317 331 16 35 46 23 18 15 7 2 2 1 2 3 3 2 359 359
152 157 159 158 149 144 130 131 267 275 285 85 114 305 328 3 11 24 22 12 9 8 5 5 0 359 356 355 357 357 354 350
157 156 158 154 148 140 136 143 269 281 286 301 300 320 71 53 350 2 356 358 358 358 1 1 359 358 354 351 346 349 349 348
156 156 154 155 147 143 138 153 276 279 281 286 294 309 146 324 323 330 336 346 355 356 358 356 355 354 350 346 344 342 343 342
164 162 158 157 157 149 140 289 283 282 279 285 275 283 292 298 294 303 320 336 340 346 351 353 349 347 341 342 343 340 341 341
171 172 170 166 167 165 169 190 279 284 287 287 271 283 289 271 268 283 298 316 322 330 342 343 344 341 344 342 340 338 337 335
174 175 176 175 177 181 185 196 278 290 290 278 280 285 267 253 268 278 292 307 315 323 331 336 335 340 341 341 339 338 337 332
183 185 185 184 186 191 197 202 225 270 272 277 284 290 283 271 269 280 285 301 309 317 326 329 334 333 335 337 335 335 333 332
195 194 196 201 203 202 206 219 247 238 259 273 283 285 280 277 282 289 286 296 305 313 321 323 324 326 331 333 334 333 333 331
205 209 214 215 213 213 222 236 244 255 267 278 282 293 291 284 280 294 290 300 303 316 322 320 324 327 328 329 331 332 332 332